Time,TemperatureF,DewpointF,PressureIn,WindDirection,WindDirectionDegrees,WindSpeedMPH,WindSpeedGustMPH,Humidity,HourlyPrecipIn,Conditions,Clouds,dailyrainin,SoftwareType,DateUTC
2013-01-25 00:05:00,50.3,47.5,30.18,North,32767,0.0,0.0,90,0.00,,,0.00,Wunderground v.1.13,2013-01-25 08:05:00,
2013-01-25 00:15:00,50.5,47.7,30.19,North,32767,0.0,0.0,90,0.00,,,0.00,Wunderground v.1.13,2013-01-25 08:15:00,
2013-01-25 00:20:00,50.8,48.0,30.19,North,360,0.0,0.0,90,0.00,,,0.00,Wunderground v.1.13,2013-01-25 08:20:00,
2013-01-25 00:30:00,51.0,48.2,30.19,North,32767,0.0,0.0,90,0.00,,,0.00,Wunderground v.1.13,2013-01-25 08:30:00,
2013-01-25 00:35:00,51.0,48.2,30.19,North,360,0.0,0.0,90,0.00,,,0.00,Wunderground v.1.13,2013-01-25 08:35:00,
2013-01-25 00:40:00,51.1,48.3,30.19,North,32767,0.0,0.0,90,0.00,,,0.00,Wunderground v.1.13,2013-01-25 08:40:00,
2013-01-25 00:45:00,51.2,48.4,30.19,North,32767,0.0,0.0,90,0.00,,,0.00,Wunderground v.1.13,2013-01-25 08:45:00,
2013-01-25 00:50:00,51.2,48.4,30.19,North,32767,0.0,0.0,90,0.00,,,0.00,Wunderground v.1.13,2013-01-25 08:50:00,
2013-01-25 00:55:00,51.2,48.4,30.19,North,32767,0.0,0.0,90,0.00,,,0.00,Wunderground v.1.13,2013-01-25 08:55:00,
2013-01-25 01:05:00,51.2,48.4,30.18,North,32767,0.0,0.0,90,0.00,,,0.00,Wunderground v.1.13,2013-01-25 09:05:00,
2013-01-25 01:15:00,51.1,48.6,30.18,North,360,0.0,0.0,91,0.00,,,0.00,Wunderground v.1.13,2013-01-25 09:15:00,
2013-01-25 01:20:00,51.1,48.6,30.18,North,32767,0.0,0.0,91,0.00,,,0.00,Wunderground v.1.13,2013-01-25 09:20:00,
2013-01-25 01:25:00,51.1,48.6,30.18,North,360,0.0,0.0,91,0.00,,,0.00,Wunderground v.1.13,2013-01-25 09:25:00,
2013-01-25 01:35:00,51.1,48.6,30.18,North,32767,0.0,0.0,91,0.00,,,0.00,Wunderground v.1.13,2013-01-25 09:35:00,
2013-01-25 01:40:00,51.1,48.6,30.18,North,360,0.0,0.0,91,0.00,,,0.00,Wunderground v.1.13,2013-01-25 09:40:00,
2013-01-25 01:45:00,51.0,48.5,30.18,North,32767,0.0,0.0,91,0.00,,,0.00,Wunderground v.1.13,2013-01-25 09:45:00,
2013-01-25 01:50:00,51.0,48.2,30.18,North,360,0.0,0.0,90,0.00,,,0.00,Wunderground v.1.13,2013-01-25 09:50:00,
2013-01-25 01:55:00,50.9,48.1,30.18,North,32767,0.0,0.0,90,0.00,,,0.00,Wunderground v.1.13,2013-01-25 09:55:00,
2013-01-25 02:00:00,50.9,48.1,30.17,North,360,0.0,0.0,90,0.00,,,0.00,Wunderground v.1.13,2013-01-25 10:00:00,
2013-01-25 02:05:00,50.8,48.0,30.17,North,32767,0.0,0.0,90,0.00,,,0.00,Wunderground v.1.13,2013-01-25 10:05:00,
2013-01-25 02:15:00,50.6,48.1,30.17,North,32767,0.0,0.0,91,0.00,,,0.00,Wunderground v.1.13,2013-01-25 10:15:00,
2013-01-25 02:20:00,50.4,47.6,30.17,North,32767,0.0,0.0,90,0.00,,,0.00,Wunderground v.1.13,2013-01-25 10:20:00,
2013-01-25 02:25:00,50.1,47.3,30.18,North,32767,0.0,0.0,90,0.00,,,0.00,Wunderground v.1.13,2013-01-25 10:25:00,
2013-01-25 02:30:00,49.8,47.0,30.17,North,32767,0.0,0.0,90,0.00,,,0.00,Wunderground v.1.13,2013-01-25 10:30:00,
2013-01-25 02:35:00,49.6,46.8,30.17,North,32767,0.0,0.0,90,0.00,,,0.00,Wunderground v.1.13,2013-01-25 10:35:00,
2013-01-25 02:40:00,49.4,46.6,30.17,North,360,0.0,0.0,90,0.00,,,0.00,Wunderground v.1.13,2013-01-25 10:40:00,
2013-01-25 02:50:00,49.0,46.2,30.17,North,32767,0.0,0.0,90,0.00,,,0.00,Wunderground v.1.13,2013-01-25 10:50:00,
2013-01-25 02:55:00,48.8,46.0,30.17,North,32767,0.0,0.0,90,0.00,,,0.00,Wunderground v.1.13,2013-01-25 10:55:00,
2013-01-25 03:05:00,48.7,46.2,30.17,North,32767,0.0,0.0,91,0.00,,,0.00,Wunderground v.1.13,2013-01-25 11:05:00,
2013-01-25 03:15:00,48.6,46.1,30.17,North,360,0.0,0.0,91,0.00,,,0.00,Wunderground v.1.13,2013-01-25 11:15:00,
2013-01-25 03:20:00,48.6,46.1,30.18,North,360,0.0,0.0,91,0.00,,,0.00,Wunderground v.1.13,2013-01-25 11:20:00,
2013-01-25 03:30:00,48.4,45.9,30.17,North,360,0.0,0.0,91,0.00,,,0.00,Wunderground v.1.13,2013-01-25 11:30:00,
2013-01-25 03:35:00,48.3,45.5,30.17,North,32767,0.0,0.0,90,0.00,,,0.00,Wunderground v.1.13,2013-01-25 11:35:00,
2013-01-25 03:40:00,48.3,45.5,30.18,North,360,0.0,0.0,90,0.00,,,0.00,Wunderground v.1.13,2013-01-25 11:40:00,
2013-01-25 03:45:00,48.2,45.7,30.17,North,32767,0.0,0.0,91,0.00,,,0.00,Wunderground v.1.13,2013-01-25 11:45:00,
2013-01-25 03:50:00,48.5,46.0,30.17,North,360,0.0,0.0,91,0.00,,,0.00,Wunderground v.1.13,2013-01-25 11:50:00,
2013-01-25 03:55:00,48.7,46.2,30.17,North,360,0.0,0.0,91,0.00,,,0.00,Wunderground v.1.13,2013-01-25 11:55:00,
2013-01-25 04:00:00,48.9,46.4,30.17,North,32767,0.0,0.0,91,0.00,,,0.00,Wunderground v.1.13,2013-01-25 12:00:00,
2013-01-25 04:05:00,49.1,46.6,30.16,North,32767,0.0,0.0,91,0.00,,,0.00,Wunderground v.1.13,2013-01-25 12:05:00,
2013-01-25 04:15:00,49.4,46.9,30.16,North,32767,0.0,0.0,91,0.00,,,0.00,Wunderground v.1.13,2013-01-25 12:15:00,
2013-01-25 04:20:00,49.7,47.2,30.16,North,360,0.0,0.0,91,0.00,,,0.00,Wunderground v.1.13,2013-01-25 12:20:00,
2013-01-25 04:25:00,49.9,47.4,30.16,North,32767,0.0,0.0,91,0.00,,,0.00,Wunderground v.1.13,2013-01-25 12:25:00,
2013-01-25 04:30:00,50.1,47.6,30.16,North,32767,0.0,0.0,91,0.00,,,0.00,Wunderground v.1.13,2013-01-25 12:30:00,
2013-01-25 04:35:00,50.2,47.7,30.16,North,32767,0.0,0.0,91,0.00,,,0.00,Wunderground v.1.13,2013-01-25 12:35:00,
2013-01-25 04:40:00,50.3,47.8,30.16,North,32767,0.0,0.0,91,0.00,,,0.00,Wunderground v.1.13,2013-01-25 12:40:00,
2013-01-25 04:45:00,50.3,47.8,30.16,North,32767,0.0,0.0,91,0.00,,,0.00,Wunderground v.1.13,2013-01-25 12:45:00,
2013-01-25 04:55:00,50.5,48.0,30.16,North,360,0.0,0.0,91,0.00,,,0.00,Wunderground v.1.13,2013-01-25 12:55:00,
2013-01-25 05:00:00,50.5,48.0,30.16,North,32767,0.0,0.0,91,0.00,,,0.00,Wunderground v.1.13,2013-01-25 13:00:00,
2013-01-25 05:05:00,50.5,48.0,30.16,North,32767,0.0,0.0,91,0.00,,,0.00,Wunderground v.1.13,2013-01-25 13:05:00,
2013-01-25 05:15:00,50.5,48.0,30.16,North,32767,0.0,0.0,91,0.00,,,0.00,Wunderground v.1.13,2013-01-25 13:15:00,
2013-01-25 05:20:00,50.5,48.0,30.16,North,32767,0.0,0.0,91,0.00,,,0.00,Wunderground v.1.13,2013-01-25 13:20:00,
2013-01-25 05:30:00,50.4,47.9,30.16,North,360,0.0,0.0,91,0.00,,,0.00,Wunderground v.1.13,2013-01-25 13:30:00,
2013-01-25 05:35:00,50.4,47.9,30.16,North,360,0.0,0.0,91,0.00,,,0.00,Wunderground v.1.13,2013-01-25 13:35:00,
2013-01-25 05:40:00,50.4,47.9,30.15,North,360,0.0,0.0,91,0.00,,,0.00,Wunderground v.1.13,2013-01-25 13:40:00,
2013-01-25 05:45:00,50.4,47.9,30.16,North,32767,0.0,0.0,91,0.00,,,0.00,Wunderground v.1.13,2013-01-25 13:45:00,
2013-01-25 05:50:00,50.3,47.8,30.15,North,32767,0.0,0.0,91,0.00,,,0.00,Wunderground v.1.13,2013-01-25 13:50:00,
2013-01-25 05:55:00,50.3,47.8,30.16,North,32767,0.0,0.0,91,0.00,,,0.00,Wunderground v.1.13,2013-01-25 13:55:00,
2013-01-25 06:00:00,50.3,47.8,30.15,North,32767,0.0,0.0,91,0.00,,,0.00,Wunderground v.1.13,2013-01-25 14:00:00,
2013-01-25 06:06:00,50.2,47.7,30.16,North,32767,0.0,0.0,91,0.00,,,0.00,Wunderground v.1.13,2013-01-25 14:06:00,
2013-01-25 06:15:00,50.0,47.5,30.15,North,32767,0.0,0.0,91,0.00,,,0.00,Wunderground v.1.13,2013-01-25 14:15:00,
2013-01-25 06:20:00,49.7,47.2,30.16,North,32767,0.0,0.0,91,0.00,,,0.00,Wunderground v.1.13,2013-01-25 14:20:00,
2013-01-25 06:25:00,49.6,47.1,30.16,North,32767,0.0,0.0,91,0.00,,,0.00,Wunderground v.1.13,2013-01-25 14:25:00,
2013-01-25 06:30:00,49.5,47.0,30.16,North,32767,0.0,0.0,91,0.00,,,0.00,Wunderground v.1.13,2013-01-25 14:30:00,
2013-01-25 06:40:00,49.4,46.9,30.16,North,32767,0.0,0.0,91,0.00,,,0.00,Wunderground v.1.13,2013-01-25 14:40:00,
2013-01-25 06:45:00,49.7,47.2,30.16,North,360,0.0,0.0,91,0.00,,,0.00,Wunderground v.1.13,2013-01-25 14:45:00,
2013-01-25 06:55:00,50.0,47.5,30.16,North,32767,0.0,0.0,91,0.00,,,0.00,Wunderground v.1.13,2013-01-25 14:55:00,
2013-01-25 07:00:00,50.0,48.6,30.16,North,360,0.0,0.0,95,0.00,,,0.00,Wunderground v.1.13,2013-01-25 15:00:00,
2013-01-25 07:05:00,50.0,47.5,30.16,North,360,0.0,0.0,91,0.00,,,0.00,Wunderground v.1.13,2013-01-25 15:05:00,
2013-01-25 07:15:00,50.0,47.5,30.16,North,360,0.0,0.0,91,0.00,,,0.00,Wunderground v.1.13,2013-01-25 15:15:00,
2013-01-25 07:20:00,50.0,47.5,30.16,North,32767,0.0,0.0,91,0.00,,,0.00,Wunderground v.1.13,2013-01-25 15:20:00,
2013-01-25 07:25:00,49.8,47.3,30.16,North,32767,0.0,0.0,91,0.00,,,0.00,Wunderground v.1.13,2013-01-25 15:25:00,
2013-01-25 07:30:00,49.7,47.2,30.16,North,32767,0.0,0.0,91,0.00,,,0.00,Wunderground v.1.13,2013-01-25 15:30:00,
2013-01-25 07:35:00,49.6,47.1,30.16,North,32767,0.0,0.0,91,0.00,,,0.00,Wunderground v.1.13,2013-01-25 15:35:00,
2013-01-25 07:40:00,49.6,47.1,30.16,North,32767,0.0,0.0,91,0.00,,,0.00,Wunderground v.1.13,2013-01-25 15:40:00,
2013-01-25 07:45:00,49.6,47.1,30.16,North,32767,0.0,0.0,91,0.00,,,0.00,Wunderground v.1.13,2013-01-25 15:45:00,
2013-01-25 07:50:00,49.5,47.0,30.16,North,360,0.0,0.0,91,0.00,,,0.00,Wunderground v.1.13,2013-01-25 15:50:00,
2013-01-25 08:00:00,49.2,46.7,30.16,North,32767,0.0,0.0,91,0.00,,,0.00,Wunderground v.1.13,2013-01-25 16:00:00,
2013-01-25 08:05:00,49.1,46.6,30.15,North,32767,0.0,0.0,91,0.00,,,0.00,Wunderground v.1.13,2013-01-25 16:05:00,
2013-01-25 08:15:00,48.8,46.3,30.15,North,360,0.0,0.0,91,0.00,,,0.00,Wunderground v.1.13,2013-01-25 16:15:00,
2013-01-25 08:25:00,48.8,46.3,30.15,North,360,0.0,0.0,91,0.00,,,0.00,Wunderground v.1.13,2013-01-25 16:25:00,
2013-01-25 08:30:00,49.1,46.9,30.15,North,32767,0.0,0.0,92,0.00,,,0.00,Wunderground v.1.13,2013-01-25 16:30:00,
2013-01-25 08:40:00,49.5,47.3,30.15,North,360,0.0,0.0,92,0.00,,,0.00,Wunderground v.1.13,2013-01-25 16:40:00,
2013-01-25 08:45:00,50.3,48.1,30.15,North,32767,0.0,0.0,92,0.00,,,0.00,Wunderground v.1.13,2013-01-25 16:45:00,
2013-01-25 08:50:00,51.0,48.8,30.15,North,360,0.0,0.0,92,0.00,,,0.00,Wunderground v.1.13,2013-01-25 16:50:00,
2013-01-25 08:55:00,51.1,48.9,30.15,North,32767,0.0,0.0,92,0.00,,,0.00,Wunderground v.1.13,2013-01-25 16:55:00,
2013-01-25 09:00:00,51.1,48.9,30.15,North,360,0.0,0.0,92,0.00,,,0.00,Wunderground v.1.13,2013-01-25 17:00:00,
2013-01-25 09:05:00,51.1,48.9,30.15,North,32767,0.0,0.0,92,0.00,,,0.00,Wunderground v.1.13,2013-01-25 17:05:00,
2013-01-25 09:15:00,51.4,49.2,30.15,North,32767,0.0,0.0,92,0.00,,,0.00,Wunderground v.1.13,2013-01-25 17:15:00,
2013-01-25 09:20:00,51.3,48.8,30.15,North,32767,0.0,0.0,91,0.00,,,0.00,Wunderground v.1.13,2013-01-25 17:20:00,
2013-01-25 09:25:00,51.5,49.3,30.15,North,360,0.0,0.0,92,0.00,,,0.00,Wunderground v.1.13,2013-01-25 17:25:00,
2013-01-25 09:30:00,51.6,49.4,30.16,North,32767,0.0,0.0,92,0.00,,,0.00,Wunderground v.1.13,2013-01-25 17:30:00,
2013-01-25 09:35:00,51.8,49.5,30.16,North,360,0.0,0.0,92,0.00,,,0.00,Wunderground v.1.13,2013-01-25 17:35:00,
2013-01-25 09:40:00,52.1,49.8,30.16,North,32767,0.0,0.0,92,0.00,,,0.00,Wunderground v.1.13,2013-01-25 17:40:00,
2013-01-25 09:45:00,52.6,50.3,30.16,North,32767,0.0,0.0,92,0.00,,,0.00,Wunderground v.1.13,2013-01-25 17:45:00,
2013-01-25 09:50:00,53.1,50.8,30.16,North,32767,0.0,0.0,92,0.00,,,0.00,Wunderground v.1.13,2013-01-25 17:50:00,
2013-01-25 09:55:00,53.7,51.4,30.16,North,32767,0.0,0.0,92,0.00,,,0.00,Wunderground v.1.13,2013-01-25 17:55:00,
2013-01-25 10:00:00,54.3,52.0,30.16,North,32767,0.0,0.0,92,0.00,,,0.00,Wunderground v.1.13,2013-01-25 18:00:00,
2013-01-25 10:05:00,54.8,52.5,30.16,North,32767,0.0,0.0,92,0.00,,,0.00,Wunderground v.1.13,2013-01-25 18:05:00,
2013-01-25 10:15:00,54.6,52.3,30.17,North,360,0.0,0.0,92,0.00,,,0.00,Wunderground v.1.13,2013-01-25 18:15:00,
2013-01-25 10:20:00,54.9,52.6,30.17,North,32767,0.0,0.0,92,0.00,,,0.00,Wunderground v.1.13,2013-01-25 18:20:00,
2013-01-25 10:25:00,54.9,52.3,30.17,North,360,0.0,0.0,91,0.00,,,0.00,Wunderground v.1.13,2013-01-25 18:25:00,
2013-01-25 10:35:00,54.8,51.9,30.17,North,360,0.0,0.0,90,0.00,,,0.00,Wunderground v.1.13,2013-01-25 18:35:00,
2013-01-25 10:40:00,54.9,52.0,30.17,North,32767,0.0,0.0,90,0.00,,,0.00,Wunderground v.1.13,2013-01-25 18:40:00,
2013-01-25 10:45:00,55.0,52.1,30.17,North,360,0.0,0.0,90,0.00,,,0.00,Wunderground v.1.13,2013-01-25 18:45:00,
2013-01-25 10:55:00,55.6,52.4,30.16,North,32767,0.0,0.0,89,0.00,,,0.00,Wunderground v.1.13,2013-01-25 18:55:00,
2013-01-25 11:00:00,56.2,53.0,30.16,North,360,0.0,0.0,89,0.00,,,0.00,Wunderground v.1.13,2013-01-25 19:00:00,
2013-01-25 11:05:00,56.7,53.2,30.16,North,360,0.0,0.0,88,0.00,,,0.00,Wunderground v.1.13,2013-01-25 19:05:00,
2013-01-25 11:15:00,57.0,52.9,30.15,North,360,0.0,0.0,86,0.00,,,0.00,Wunderground v.1.13,2013-01-25 19:15:00,
2013-01-25 11:20:00,57.2,53.0,30.15,North,32767,0.0,0.0,86,0.00,,,0.00,Wunderground v.1.13,2013-01-25 19:20:00,
2013-01-25 11:25:00,57.4,52.9,30.15,North,32767,0.0,0.0,85,0.00,,,0.00,Wunderground v.1.13,2013-01-25 19:25:00,
2013-01-25 11:30:00,57.7,53.2,30.15,North,360,0.0,0.0,85,0.00,,,0.00,Wunderground v.1.13,2013-01-25 19:30:00,
2013-01-25 11:35:00,57.9,53.1,30.15,North,360,0.0,0.0,84,0.00,,,0.00,Wunderground v.1.13,2013-01-25 19:35:00,
2013-01-25 11:40:00,57.9,52.8,30.14,North,32767,0.0,0.0,83,0.00,,,0.00,Wunderground v.1.13,2013-01-25 19:40:00,
2013-01-25 11:45:00,58.1,53.0,30.14,North,32767,0.0,0.0,83,0.00,,,0.00,Wunderground v.1.13,2013-01-25 19:45:00,
2013-01-25 11:50:00,58.4,52.9,30.14,North,32767,0.0,0.0,82,0.00,,,0.00,Wunderground v.1.13,2013-01-25 19:50:00,
2013-01-25 11:55:00,58.5,52.7,30.13,North,360,0.0,0.0,81,0.00,,,0.00,Wunderground v.1.13,2013-01-25 19:55:00,
2013-01-25 12:00:00,58.6,52.4,30.14,North,360,0.0,0.0,80,0.00,,,0.00,Wunderground v.1.13,2013-01-25 20:00:00,
2013-01-25 12:06:00,58.8,53.0,30.14,North,360,0.0,0.0,81,0.00,,,0.00,Wunderground v.1.13,2013-01-25 20:06:00,
2013-01-25 12:15:00,59.0,52.8,30.13,North,32767,0.0,0.0,80,0.00,,,0.00,Wunderground v.1.13,2013-01-25 20:15:00,
2013-01-25 12:20:00,59.0,52.8,30.13,North,32767,0.0,0.0,80,0.00,,,0.00,Wunderground v.1.13,2013-01-25 20:20:00,
2013-01-25 12:30:00,59.0,52.8,30.13,North,32767,0.0,0.0,80,0.00,,,0.00,Wunderground v.1.13,2013-01-25 20:30:00,
2013-01-25 12:40:00,59.3,52.8,30.12,North,32767,0.0,0.0,79,0.00,,,0.00,Wunderground v.1.13,2013-01-25 20:40:00,
2013-01-25 12:45:00,59.5,53.0,30.11,North,32767,0.0,0.0,79,0.00,,,0.00,Wunderground v.1.13,2013-01-25 20:45:00,
2013-01-25 12:50:00,59.5,52.6,30.11,North,360,0.0,0.0,78,0.00,,,0.00,Wunderground v.1.13,2013-01-25 20:50:00,
2013-01-25 12:55:00,59.5,52.6,30.11,North,32767,0.0,0.0,78,0.00,,,0.00,Wunderground v.1.13,2013-01-25 20:55:00,
2013-01-25 13:00:00,59.5,53.0,30.11,North,360,0.0,0.0,79,0.00,,,0.00,Wunderground v.1.13,2013-01-25 21:00:00,
2013-01-25 13:06:00,59.5,53.0,30.11,North,32767,0.0,0.0,79,0.00,,,0.00,Wunderground v.1.13,2013-01-25 21:06:00,
2013-01-25 13:15:00,59.6,52.7,30.11,North,32767,0.0,0.0,78,0.00,,,0.00,Wunderground v.1.13,2013-01-25 21:15:00,
2013-01-25 13:20:00,59.6,52.4,30.10,North,32767,0.0,0.0,77,0.00,,,0.00,Wunderground v.1.13,2013-01-25 21:20:00,
2013-01-25 13:25:00,59.7,52.5,30.10,North,360,0.0,0.0,77,0.00,,,0.00,Wunderground v.1.13,2013-01-25 21:25:00,
2013-01-25 13:30:00,59.8,52.9,30.10,North,32767,0.0,0.0,78,0.00,,,0.00,Wunderground v.1.13,2013-01-25 21:30:00,
2013-01-25 13:35:00,59.9,52.7,30.10,North,360,0.0,0.0,77,0.00,,,0.00,Wunderground v.1.13,2013-01-25 21:35:00,
2013-01-25 13:40:00,60.0,52.8,30.10,North,32767,0.0,0.0,77,0.00,,,0.00,Wunderground v.1.13,2013-01-25 21:40:00,
2013-01-25 13:50:00,60.2,52.6,30.10,North,32767,0.0,0.0,76,0.00,,,0.00,Wunderground v.1.13,2013-01-25 21:50:00,
2013-01-25 13:55:00,60.3,52.7,30.09,North,32767,0.0,0.0,76,0.00,,,0.00,Wunderground v.1.13,2013-01-25 21:55:00,
2013-01-25 14:00:00,60.4,52.4,30.09,North,32767,0.0,0.0,75,0.00,,,0.00,Wunderground v.1.13,2013-01-25 22:00:00,
2013-01-25 14:05:00,60.4,52.8,30.09,North,32767,0.0,0.0,76,0.00,,,0.00,Wunderground v.1.13,2013-01-25 22:05:00,
2013-01-25 14:15:00,60.4,52.1,30.09,North,32767,0.0,0.0,74,0.00,,,0.00,Wunderground v.1.13,2013-01-25 22:15:00,
2013-01-25 14:20:00,60.4,52.4,30.09,North,32767,0.0,0.0,75,0.00,,,0.00,Wunderground v.1.13,2013-01-25 22:20:00,
2013-01-25 14:25:00,60.4,52.8,30.09,North,360,0.0,0.0,76,0.00,,,0.00,Wunderground v.1.13,2013-01-25 22:25:00,
2013-01-25 14:35:00,60.5,53.3,30.09,North,360,0.0,0.0,77,0.00,,,0.00,Wunderground v.1.13,2013-01-25 22:35:00,
2013-01-25 14:40:00,60.5,53.3,30.09,North,32767,0.0,0.0,77,0.00,,,0.00,Wunderground v.1.13,2013-01-25 22:40:00,
2013-01-25 14:45:00,60.6,53.3,30.09,North,360,0.0,0.0,77,0.00,,,0.00,Wunderground v.1.13,2013-01-25 22:45:00,
2013-01-25 14:50:00,60.6,53.3,30.09,North,32767,0.0,0.0,77,0.00,,,0.00,Wunderground v.1.13,2013-01-25 22:50:00,
2013-01-25 15:00:00,60.6,53.3,30.08,North,360,0.0,0.0,77,0.00,,,0.00,Wunderground v.1.13,2013-01-25 23:00:00,
2013-01-25 15:05:00,60.6,53.3,30.08,North,360,0.0,0.0,77,0.00,,,0.00,Wunderground v.1.13,2013-01-25 23:05:00,
2013-01-25 15:15:00,60.7,53.8,30.08,North,360,0.0,0.0,78,0.00,,,0.00,Wunderground v.1.13,2013-01-25 23:15:00,
2013-01-25 15:20:00,60.7,53.8,30.08,North,32767,0.0,0.0,78,0.00,,,0.00,Wunderground v.1.13,2013-01-25 23:20:00,
2013-01-25 15:25:00,60.7,53.8,30.07,North,32767,0.0,0.0,78,0.00,,,0.00,Wunderground v.1.13,2013-01-25 23:25:00,
2013-01-25 15:30:00,60.7,53.8,30.07,North,32767,0.0,0.0,78,0.00,,,0.00,Wunderground v.1.13,2013-01-25 23:30:00,
2013-01-25 15:35:00,60.7,53.8,30.07,North,32767,0.0,0.0,78,0.00,,,0.00,Wunderground v.1.13,2013-01-25 23:35:00,
2013-01-25 15:40:00,60.7,53.8,30.07,North,32767,0.0,0.0,78,0.00,,,0.00,Wunderground v.1.13,2013-01-25 23:40:00,
2013-01-25 15:45:00,60.8,53.9,30.07,North,32767,0.0,0.0,78,0.00,,,0.00,Wunderground v.1.13,2013-01-25 23:45:00,
2013-01-25 15:50:00,60.8,53.9,30.06,North,360,0.0,0.0,78,0.00,,,0.00,Wunderground v.1.13,2013-01-25 23:50:00,
2013-01-25 16:00:00,60.8,53.9,30.06,North,32767,0.0,0.0,78,0.00,,,0.00,Wunderground v.1.13,2013-01-26 00:00:00,
2013-01-25 16:05:00,60.8,53.9,30.05,North,32767,0.0,0.0,78,0.00,,,0.00,Wunderground v.1.13,2013-01-26 00:05:00,
2013-01-25 16:15:00,60.8,53.9,30.05,North,360,0.0,0.0,78,0.00,,,0.00,Wunderground v.1.13,2013-01-26 00:15:00,
2013-01-25 16:25:00,60.5,53.3,30.04,North,360,0.0,0.0,77,0.00,,,0.00,Wunderground v.1.13,2013-01-26 00:25:00,
2013-01-25 16:30:00,60.4,53.2,30.04,North,32767,0.0,0.0,77,0.00,,,0.00,Wunderground v.1.13,2013-01-26 00:30:00,
2013-01-25 16:35:00,60.3,53.1,30.04,North,360,0.0,0.0,77,0.00,,,0.00,Wunderground v.1.13,2013-01-26 00:35:00,
2013-01-25 16:40:00,60.1,52.9,30.04,North,360,0.0,0.0,77,0.00,,,0.00,Wunderground v.1.13,2013-01-26 00:40:00,
2013-01-25 16:45:00,60.0,52.8,30.04,North,32767,0.0,0.0,77,0.00,,,0.00,Wunderground v.1.13,2013-01-26 00:45:00,
2013-01-25 16:50:00,59.8,52.9,30.04,North,360,0.0,0.0,78,0.00,,,0.00,Wunderground v.1.13,2013-01-26 00:50:00,
2013-01-25 16:55:00,59.7,52.8,30.04,North,32767,0.0,0.0,78,0.00,,,0.00,Wunderground v.1.13,2013-01-26 00:55:00,
2013-01-25 17:00:00,59.6,52.7,30.04,North,360,0.0,0.0,78,0.00,,,0.00,Wunderground v.1.13,2013-01-26 01:00:00,
2013-01-25 17:06:00,59.4,52.5,30.04,North,32767,0.0,0.0,78,0.00,,,0.00,Wunderground v.1.13,2013-01-26 01:06:00,
2013-01-25 17:15:00,59.0,52.1,30.04,North,32767,0.0,0.0,78,0.00,,,0.00,Wunderground v.1.13,2013-01-26 01:15:00,
2013-01-25 17:20:00,59.0,52.1,30.04,North,32767,0.0,0.0,78,0.00,,,0.00,Wunderground v.1.13,2013-01-26 01:20:00,
2013-01-25 17:25:00,58.9,52.4,30.04,North,32767,0.0,0.0,79,0.00,,,0.00,Wunderground v.1.13,2013-01-26 01:25:00,
2013-01-25 17:30:00,58.6,52.1,30.04,North,360,0.0,0.0,79,0.00,,,0.00,Wunderground v.1.13,2013-01-26 01:30:00,
2013-01-25 17:35:00,58.4,52.3,30.04,North,32767,0.0,0.0,80,0.00,,,0.00,Wunderground v.1.13,2013-01-26 01:35:00,
2013-01-25 17:45:00,58.0,51.9,30.04,North,32767,0.0,0.0,80,0.00,,,0.00,Wunderground v.1.13,2013-01-26 01:45:00,
2013-01-25 17:55:00,57.6,51.8,30.04,North,360,0.0,0.0,81,0.00,,,0.00,Wunderground v.1.13,2013-01-26 01:55:00,
2013-01-25 18:00:00,57.4,51.6,30.04,North,32767,0.0,0.0,81,0.00,,,0.00,Wunderground v.1.13,2013-01-26 02:00:00,
2013-01-25 18:05:00,57.2,51.4,30.05,North,360,0.0,0.0,81,0.00,,,0.00,Wunderground v.1.13,2013-01-26 02:05:00,
2013-01-25 18:15:00,57.0,51.6,30.05,North,32767,0.0,0.0,82,0.00,,,0.00,Wunderground v.1.13,2013-01-26 02:15:00,
2013-01-25 18:20:00,56.9,51.5,30.05,North,360,0.0,0.0,82,0.00,,,0.00,Wunderground v.1.13,2013-01-26 02:20:00,
2013-01-25 18:25:00,56.7,51.3,30.05,North,360,0.0,0.0,82,0.00,,,0.00,Wunderground v.1.13,2013-01-26 02:25:00,
2013-01-25 18:35:00,56.5,51.4,30.05,North,360,0.0,0.0,83,0.00,,,0.00,Wunderground v.1.13,2013-01-26 02:35:00,
2013-01-25 18:40:00,56.3,51.2,30.06,North,32767,0.0,0.0,83,0.00,,,0.00,Wunderground v.1.13,2013-01-26 02:40:00,
2013-01-25 18:45:00,56.2,51.4,30.06,North,360,0.0,0.0,84,0.00,,,0.00,Wunderground v.1.13,2013-01-26 02:45:00,
2013-01-25 18:50:00,56.0,51.2,30.06,North,32767,0.0,0.0,84,0.00,,,0.00,Wunderground v.1.13,2013-01-26 02:50:00,
2013-01-25 19:00:00,55.7,50.9,30.06,North,360,0.0,0.0,84,0.00,,,0.00,Wunderground v.1.13,2013-01-26 03:00:00,
2013-01-25 19:05:00,55.5,50.7,30.06,North,360,0.0,0.0,84,0.00,,,0.00,Wunderground v.1.13,2013-01-26 03:05:00,
2013-01-25 19:15:00,55.1,50.4,30.05,North,360,0.0,0.0,84,0.00,,,0.00,Wunderground v.1.13,2013-01-26 03:15:00,
2013-01-25 19:20:00,54.9,50.5,30.05,North,32767,0.0,0.0,85,0.00,,,0.00,Wunderground v.1.13,2013-01-26 03:20:00,
2013-01-25 19:25:00,54.7,50.3,30.05,North,32767,0.0,0.0,85,0.00,,,0.00,Wunderground v.1.13,2013-01-26 03:25:00,
2013-01-25 19:35:00,54.3,49.9,30.05,North,32767,0.0,0.0,85,0.00,,,0.00,Wunderground v.1.13,2013-01-26 03:35:00,
2013-01-25 19:40:00,54.1,49.7,30.05,North,32767,0.0,0.0,85,0.00,,,0.00,Wunderground v.1.13,2013-01-26 03:40:00,
2013-01-25 19:45:00,53.9,49.5,30.05,North,32767,0.0,0.0,85,0.00,,,0.00,Wunderground v.1.13,2013-01-26 03:45:00,
2013-01-25 19:50:00,53.8,49.7,30.05,North,360,0.0,0.0,86,0.00,,,0.00,Wunderground v.1.13,2013-01-26 03:50:00,
2013-01-25 20:00:00,53.3,49.2,30.05,North,32767,0.0,0.0,86,0.00,,,0.00,Wunderground v.1.13,2013-01-26 04:00:00,
2013-01-25 20:05:00,53.1,49.0,30.05,North,32767,0.0,0.0,86,0.00,,,0.00,Wunderground v.1.13,2013-01-26 04:05:00,
2013-01-25 20:15:00,52.8,48.7,30.05,North,360,0.0,0.0,86,0.00,,,0.00,Wunderground v.1.13,2013-01-26 04:15:00,
2013-01-25 20:25:00,52.6,48.8,30.05,North,360,0.0,0.0,87,0.00,,,0.00,Wunderground v.1.13,2013-01-26 04:25:00,
2013-01-25 20:30:00,52.5,48.7,30.05,North,32767,0.0,0.0,87,0.00,,,0.00,Wunderground v.1.13,2013-01-26 04:30:00,
2013-01-25 20:35:00,52.5,48.7,30.05,North,32767,0.0,0.0,87,0.00,,,0.00,Wunderground v.1.13,2013-01-26 04:35:00,
2013-01-25 20:45:00,52.3,48.5,30.05,North,32767,0.0,0.0,87,0.00,,,0.00,Wunderground v.1.13,2013-01-26 04:45:00,
2013-01-25 20:50:00,52.2,48.4,30.05,North,32767,0.0,0.0,87,0.00,,,0.00,Wunderground v.1.13,2013-01-26 04:50:00,
2013-01-25 20:55:00,52.1,48.3,30.05,North,360,0.0,0.0,87,0.00,,,0.00,Wunderground v.1.13,2013-01-26 04:55:00,
2013-01-25 21:00:00,51.9,48.2,30.05,North,32767,0.0,0.0,87,0.00,,,0.00,Wunderground v.1.13,2013-01-26 05:00:00,
2013-01-25 21:06:00,51.7,48.0,30.05,North,360,0.0,0.0,87,0.00,,,0.00,Wunderground v.1.13,2013-01-26 05:06:00,
2013-01-25 21:10:00,51.5,48.1,30.05,North,32767,0.0,0.0,88,0.00,,,0.00,Wunderground v.1.13,2013-01-26 05:10:00,
2013-01-25 21:15:00,51.4,47.7,30.05,North,32767,0.0,0.0,87,0.00,,,0.00,Wunderground v.1.13,2013-01-26 05:15:00,
2013-01-25 21:20:00,51.2,47.8,30.05,North,32767,0.0,0.0,88,0.00,,,0.00,Wunderground v.1.13,2013-01-26 05:20:00,
2013-01-25 21:25:00,51.1,47.7,30.05,North,32767,0.0,0.0,88,0.00,,,0.00,Wunderground v.1.13,2013-01-26 05:25:00,
2013-01-25 21:30:00,51.0,47.6,30.05,North,360,0.0,0.0,88,0.00,,,0.00,Wunderground v.1.13,2013-01-26 05:30:00,
2013-01-25 21:35:00,50.8,47.4,30.05,North,360,0.0,0.0,88,0.00,,,0.00,Wunderground v.1.13,2013-01-26 05:35:00,
2013-01-25 21:40:00,50.7,47.3,30.05,North,32767,0.0,0.0,88,0.00,,,0.00,Wunderground v.1.13,2013-01-26 05:40:00,
2013-01-25 21:45:00,50.5,47.1,30.05,North,360,0.0,0.0,88,0.00,,,0.00,Wunderground v.1.13,2013-01-26 05:45:00,
2013-01-25 21:55:00,50.3,46.9,30.05,North,32767,0.0,0.0,88,0.00,,,0.00,Wunderground v.1.13,2013-01-26 05:55:00,
2013-01-25 22:00:00,50.1,46.7,30.05,North,360,0.0,0.0,88,0.00,,,0.00,Wunderground v.1.13,2013-01-26 06:00:00,
2013-01-25 22:05:00,49.9,46.5,30.05,North,32767,0.0,0.0,88,0.00,,,0.00,Wunderground v.1.13,2013-01-26 06:05:00,
2013-01-25 22:15:00,49.6,46.2,30.05,North,32767,0.0,0.0,88,0.00,,,0.00,Wunderground v.1.13,2013-01-26 06:15:00,
2013-01-25 22:20:00,49.4,46.0,30.05,North,32767,0.0,0.0,88,0.00,,,0.00,Wunderground v.1.13,2013-01-26 06:20:00,
2013-01-25 22:30:00,49.1,45.7,30.05,North,360,0.0,0.0,88,0.00,,,0.00,Wunderground v.1.13,2013-01-26 06:30:00,
2013-01-25 22:35:00,48.9,45.5,30.05,North,32767,0.0,0.0,88,0.00,,,0.00,Wunderground v.1.13,2013-01-26 06:35:00,
2013-01-25 22:40:00,48.8,45.4,30.05,North,360,0.0,0.0,88,0.00,,,0.00,Wunderground v.1.13,2013-01-26 06:40:00,
2013-01-25 22:45:00,48.6,45.2,30.05,North,32767,0.0,0.0,88,0.00,,,0.00,Wunderground v.1.13,2013-01-26 06:45:00,
2013-01-25 22:50:00,48.5,45.4,30.05,North,32767,0.0,0.0,89,0.00,,,0.00,Wunderground v.1.13,2013-01-26 06:50:00,
2013-01-25 22:55:00,48.3,45.2,30.06,North,32767,0.0,0.0,89,0.00,,,0.00,Wunderground v.1.13,2013-01-26 06:55:00,
2013-01-25 23:06:00,48.1,45.0,30.05,North,360,0.0,0.0,89,0.00,,,0.00,Wunderground v.1.13,2013-01-26 07:06:00,
2013-01-25 23:15:00,47.8,44.7,30.05,North,360,0.0,0.0,89,0.00,,,0.00,Wunderground v.1.13,2013-01-26 07:15:00,
2013-01-25 23:20:00,47.7,44.6,30.05,North,32767,0.0,0.0,89,0.00,,,0.00,Wunderground v.1.13,2013-01-26 07:20:00,
2013-01-25 23:25:00,47.6,44.5,30.05,North,360,0.0,0.0,89,0.00,,,0.00,Wunderground v.1.13,2013-01-26 07:25:00,
2013-01-25 23:30:00,47.5,44.4,30.05,North,32767,0.0,0.0,89,0.00,,,0.00,Wunderground v.1.13,2013-01-26 07:30:00,
2013-01-25 23:40:00,47.3,44.2,30.05,North,360,0.0,0.0,89,0.00,,,0.00,Wunderground v.1.13,2013-01-26 07:40:00,
2013-01-25 23:50:00,47.2,44.1,30.05,North,360,0.0,0.0,89,0.00,,,0.00,Wunderground v.1.13,2013-01-26 07:50:00,
2013-01-25 23:55:00,47.0,43.9,30.05,North,32767,0.0,0.0,89,0.00,,,0.00,Wunderground v.1.13,2013-01-26 07:55:00,